RH
55 60 69 84 99 96 93 98 98 96 97 90 67 48 44 48 54 68 86 91 77 55 41 43 47 54 69 75 84 100 105 104 105 104 100 96 100 103 101 99 103 101 91 96 102 99 101 101 101 104 102 102 93 71 59 55 53 51 49 45 43 44 45 44 41 38 36 35 34 36 41 44 46 51 53 48 41 40 44 49 51 46 49 65 80
46 51 65 81 94 95 89 94 102 103 104 103 84 60 46 45 52 61 80 96 89 65 50 53 50 50 67 75 83 100 107 106 105 104 101 99 101 102 101 103 106 97 89 98 102 99 101 100 104 103 98 101 84 61 59 59 59 55 46 42 42 43 44 42 39 39 38 35 34 37 43 46 46 49 49 44 40 38 43 49 50 49 56 72 82
45 45 56 76 91 92 85 88 101 105 104 105 95 75 55 46 50 57 69 92 98 77 66 77 72 61 69 77 87 101 106 106 103 101 101 100 100 102 102 102 103 92 81 87 92 96 101 100 103 99 97 101 79 59 64 65 61 53 45 44 42 41 41 42 45 44 41 38 35 34 37 42 45 48 46 44 44 41 41 46 51 56 67 80 87
46 46 47 62 83 92 85 83 96 105 103 99 96 87 69 51 50 53 59 79 97 92 86 96 95 83 78 79 91 102 105 106 103 100 101 101 100 100 101 99 95 85 75 72 71 80 95 101 103 97 98 100 79 69 69 62 59 57 58 55 46 51 51 44 45 46 46 42 37 34 33 36 41 42 43 45 47 46 45 47 47 56 71 81 89
50 51 50 52 67 83 83 80 87 99 104 98 93 93 83 62 52 50 52 64 85 97 99 100 100 99 93 88 95 103 104 105 102 100 100 101 102 99 101 101 92 82 77 69 56 65 89 101 101 96 100 102 90 84 75 66 77 85 83 68 59 80 83 64 56 53 49 44 42 41 39 44 46 39 40 50 53 48 47 51 50 55 67 78 88
56 53 55 54 59 70 76 77 83 94 103 100 91 91 89 74 58 50 48 54 71 91 102 101 98 100 100 99 101 104 109 106 99 101 101 100 102 101 100 102 96 82 75 72 59 68 94 102 100 98 101 103 97 94 83 80 98 104 95 76 70 94 102 91 88 77 59 49 47 45 46 56 57 44 40 51 67 68 57 52 54 55 59 67 77
61 54 55 56 59 68 70 71 84 97 102 99 92 89 90 81 66 55 49 49 60 79 98 104 100 99 100 100 101 104 111 108 99 101 104 100 100 101 101 101 100 85 71 75 76 83 99 101 99 99 100 102 100 99 94 93 103 101 90 77 72 91 105 99 95 84 64 52 50 49 50 53 50 48 47 46 65 89 87 69 60 62 61 60 64
66 57 54 54 60 74 79 75 84 99 102 100 97 91 89 84 71 60 53 49 54 67 87 103 105 102 101 101 102 105 109 104 99 104 105 101 100 101 102 101 101 93 77 75 80 86 99 104 103 99 101 106 103 103 103 100 102 97 88 78 67 82 102 91 73 69 68 62 57 51 51 51 46 47 52 48 50 70 90 85 67 67 71 67 68
72 63 57 54 56 69 82 81 80 91 98 101 102 94 86 83 74 63 57 52 52 58 72 93 105 105 103 101 101 105 108 97 92 103 105 101 100 100 101 100 100 99 92 85 79 77 85 96 102 101 102 106 104 104 104 101 102 99 92 79 61 69 96 92 72 76 88 85 69 56 55 56 49 45 51 55 49 49 71 79 65 66 74 72 71
76 73 65 58 56 58 66 70 65 71 85 97 104 96 85 83 78 68 61 55 52 54 61 76 96 107 105 102 98 98 104 96 83 91 104 101 99 101 101 101 100 99 99 97 90 82 81 85 88 92 94 95 99 104 101 101 107 102 89 76 64 75 100 100 89 94 101 89 70 67 79 79 63 50 46 49 50 52 63 67 60 61 68 76 76
77 77 72 66 62 57 57 59 58 60 69 85 100 99 89 85 83 72 63 58 54 53 56 62 79 100 107 104 102 95 92 92 81 77 93 102 100 101 101 101 101 100 100 101 98 93 91 89 81 79 81 81 90 102 103 105 107 94 84 79 71 83 103 100 95 101 94 71 58 65 80 86 83 76 65 51 47 51 54 57 60 57 59 80 87
82 80 75 71 67 64 60 57 58 60 59 65 80 91 89 85 84 74 63 61 59 52 52 56 62 81 101 105 104 100 86 79 77 71 79 94 100 100 100 101 101 102 100 99 101 98 98 96 85 78 76 74 86 100 104 106 96 83 87 90 80 86 103 100 98 103 84 56 55 62 57 60 81 99 95 70 50 51 53 55 65 64 59 72 77
87 83 79 75 71 68 66 61 59 60 60 57 58 69 76 74 77 74 62 59 61 53 49 55 56 60 82 99 102 104 94 74 66 65 68 80 92 97 100 102 101 101 100 98 100 100 100 99 92 80 70 74 94 103 103 102 87 77 89 96 91 95 104 100 99 103 84 59 61 64 47 43 68 98 105 78 53 57 63 59 64 68 67 70 69
88 87 83 81 76 71 69 68 64 59 60 60 55 55 61 64 69 69 60 56 56 54 50 54 60 54 59 81 96 101 103 90 69 61 62 68 79 88 93 99 102 101 100 100 101 100 101 101 97 85 68 76 100 103 101 100 83 76 91 100 100 101 102 100 101 103 91 72 65 59 51 58 78 101 107 81 56 61 71 67 61 60 68 79 80
85 89 87 85 83 77 72 71 71 66 60 58 57 56 55 57 62 63 62 58 53 56 56 53 59 60 50 57 80 94 101 103 90 71 61 61 68 76 80 86 94 100 101 100 101 100 101 101 100 91 74 78 99 101 99 100 86 75 87 102 104 101 101 103 103 104 96 78 66 63 72 87 94 101 107 86 59 61 71 69 64 67 83 96 97
82 85 88 87 86 83 79 74 73 72 68 61 56 55 56 55 56 60 63 62 59 59 61 57 55 61 57 47 57 78 90 100 104 93 74 61 59 66 73 76 83 93 99 100 100 100 101 101 99 96 87 82 93 100 102 102 93 79 77 91 99 97 102 106 102 104 101 85 78 82 90 99 98 99 107 87 57 58 71 72 71 75 84 90 92
81 83 85 86 87 85 84 82 75 72 73 70 61 55 57 59 55 56 62 65 66 63 63 65 59 57 61 52 44 55 72 86 99 104 95 77 64 62 67 73 76 83 93 100 101 99 101 102 99 98 99 93 88 91 94 94 91 84 76 79 83 82 90 99 98 101 99 86 90 99 98 100 99 98 105 86 55 57 73 79 78 73 71 75 81
76 83 84 83 86 86 86 85 81 76 73 71 69 59 55 63 62 55 62 71 71 68 68 71 65 58 60 59 50 46 53 70 85 97 103 98 87 77 71 72 73 74 83 94 101 101 99 101 101 100 103 103 91 79 76 73 76 82 80 75 78 79 81 87 89 91 90 83 91 102 99 98 98 100 106 88 57 59 78 87 87 79 72 73 78
68 78 84 85 86 87 87 86 82 80 75 69 69 63 54 63 69 61 62 73 76 72 73 76 75 70 64 59 60 57 51 56 68 80 93 101 102 98 91 85 81 74 74 81 91 100 101 100 100 100 101 104 99 86 81 80 82 89 88 81 84 89 90 91 92 92 90 84 86 98 102 98 96 100 101 79 53 61 82 94 95 85 75 75 80
64 69 78 85 87 86 86 87 85 80 74 65 62 62 55 55 67 70 63 65 70 67 69 83 94 92 78 62 65 75 68 58 59 65 75 86 94 101 102 99 96 88 79 74 75 84 94 100 102 101 100 101 100 95 95 100 101 101 96 90 90 94 94 96 99 102 99 86 78 88 98 93 83 80 76 62 53 64 82 98 102 91 77 74 81
59 64 71 79 85 88 86 86 89 82 69 67 70 69 62 53 54 63 63 58 63 67 65 76 96 104 88 64 63 81 87 75 64 61 64 69 74 82 91 97 101 98 90 83 77 73 77 87 96 101 102 101 99 96 94 95 100 104 101 96 95 96 93 89 91 95 92 83 76 79 86 84 73 67 65 63 68 78 91 103 106 98 81 71 75
49 58 68 76 83 91 89 82 87 89 80 83 94 93 87 78 59 49 57 59 58 68 70 69 89 106 92 65 57 76 94 90 77 75 77 75 70 67 71 77 85 93 94 91 90 84 78 79 84 92 99 102 102 99 93 87 92 102 103 98 95 97 98 92 87 86 81 78 79 78 80 80 75 75 77 82 91 99 101 103 104 99 84 70 72
41 49 61 73 81 89 89 81 78 86 90 88 95 100 100 102 88 62 62 71 67 69 78 81 88 90 80 67 57 65 87 90 83 90 98 96 92 85 77 67 63 70 80 86 91 95 95 91 85 81 87 97 102 101 98 94 97 103 104 101 95 94 101 101 97 97 94 90 91 90 89 88 86 88 91 96 105 106 100 99 102 94 77 67 73
36 43 50 60 71 78 82 80 71 73 87 91 89 91 90 98 105 87 76 89 86 73 82 98 94 77 78 88 70 53 70 82 79 92 105 104 102 101 96 82 61 51 55 62 70 80 89 97 98 93 89 91 97 101 102 100 99 100 100 102 100 95 98 103 103 103 102 100 99 100 100 100 101 101 100 102 104 102 98 99 102 97 82 74 78
30 37 45 51 59 65 69 75 69 61 75 93 95 92 91 99 108 98 91 98 89 74 86 102 97 83 91 107 89 55 55 70 74 84 98 103 101 100 102 98 84 72 68 67 66 66 68 73 83 91 94 94 95 98 102 103 102 103 101 101 104 101 96 95 97 99 101 102 102 102 101 100 101 101 101 101 101 101 102 100 101 101 94 86 86
24 28 38 45 50 57 61 65 67 57 56 75 94 100 101 103 104 100 100 95 77 77 95 98 95 97 97 105 103 72 48 56 71 80 90 100 102 99 100 102 99 96 95 95 92 87 81 72 67 67 70 77 84 88 93 97 98 101 103 103 105 102 93 85 83 85 88 92 94 97 101 102 102 102 100 100 101 101 102 101 101 101 97 95 95
22 23 29 36 44 53 59 60 64 62 53 58 78 95 100 100 99 100 103 94 76 81 98 97 100 109 103 104 111 89 55 47 62 77 87 96 101 101 100 100 102 101 100 100 101 101 100 95 88 79 67 60 60 62 69 76 79 82 85 88 91 90 86 80 76 74 73 76 80 85 91 94 96 100 101 100 101 101 101 102 100 97 95 98 99
19 21 22 29 40 51 60 63 59 60 64 63 63 73 89 99 101 98 102 102 92 87 89 90 100 109 104 105 112 101 71 49 53 72 85 93 98 100 100 100 100 101 101 100 101 101 101 101 101 98 94 84 68 54 48 49 51 54 55 57 59 61 63 63 64 64 65 68 72 77 79 76 77 86 91 92 98 103 103 103 101 98 96 100 101
16 19 19 22 31 40 53 63 56 49 63 75 67 58 68 87 99 99 100 103 103 99 88 80 91 106 106 101 104 106 85 53 47 65 81 93 96 93 98 102 99 100 101 100 101 101 100 103 104 101 102 103 92 76 62 51 44 42 43 45 46 44 42 40 41 44 48 52 58 65 70 66 65 74 83 85 92 103 107 105 104 102 100 102 102
14 16 18 18 22 27 37 51 53 45 50 64 69 63 58 67 86 99 103 101 100 102 95 82 83 95 104 101 97 104 97 66 49 56 73 91 94 87 93 102 100 99 101 100 101 101 98 100 106 105 100 101 104 101 93 84 77 75 77 80 80 73 58 43 34 32 32 35 39 45 52 56 59 68 76 81 87 99 107 107 104 102 100 101 103
14 14 16 16 17 20 24 33 43 47 46 50 60 69 67 67 77 90 98 98 98 101 100 95 91 92 101 105 98 103 104 79 56 53 65 85 92 83 84 97 102 99 100 101 101 101 99 96 101 105 98 94 99 103 103 102 100 100 101 100 102 100 86 61 40 31 29 29 29 31 35 43 51 58 65 73 81 90 100 104 105 105 101 100 103
13 13 13 14 15 16 17 21 27 35 42 46 53 62 68 72 79 85 83 82 93 103 100 97 99 98 102 106 101 98 95 82 66 59 61 75 89 85 77 85 99 101 99 102 102 100 98 95 96 102 98 90 85 85 90 98 98 95 91 88 89 95 99 83 55 35 30 30 30 29 29 32 39 47 55 63 71 81 89 94 98 100 100 102 105
10 11 11 12 13 13 14 16 19 22 28 38 48 56 59 62 73 85 83 75 85 102 102 98 101 102 102 105 103 94 85 82 79 71 64 68 80 87 82 80 91 100 100 101 101 100 100 97 94 98 101 96 88 83 84 90 90 84 78 75 74 78 91 98 81 51 31 28 31 30 28 29 32 37 46 54 64 76 83 85 87 87 90 94 94
8 9 10 10 11 12 12 13 15 18 20 27 40 50 52 53 62 78 86 85 87 98 104 101 99 101 102 102 102 97 90 91 90 81 73 71 73 80 86 85 89 98 102 101 99 96 99 100 93 91 98 102 98 96 95 94 94 89 79 73 71 70 77 91 95 77 47 29 30 31 28 28 31 36 45 52 60 70 76 78 79 78 81 85 81
6 7 8 9 9 10 11 12 12 15 16 20 31 41 45 49 56 64 76 87 94 99 105 104 99 100 103 100 99 100 98 99 100 92 82 77 74 76 82 87 93 98 99 100 101 97 98 102 94 85 91 99 101 100 100 101 101 100 94 84 74 71 72 77 87 90 70 42 31 33 33 31 34 41 52 59 60 61 62 64 68 74 81 81 72
4 5 5 7 8 8 9 10 11 12 14 16 23 33 38 43 49 53 62 76 90 101 108 106 100 99 102 100 99 101 100 99 102 101 92 84 79 77 78 81 88 95 96 97 101 100 99 103 99 88 81 84 93 99 98 100 104 103 103 96 81 73 76 76 78 87 85 61 38 34 38 39 41 47 57 65 65 59 58 61 68 77 76 66 54
3 4 4 4 6 7 8 8 9 10 11 13 18 26 30 33 39 46 53 65 82 100 108 104 102 102 102 101 100 100 100 99 98 101 102 95 86 79 77 76 79 88 94 96 99 101 99 100 102 98 83 72 83 98 96 95 103 104 104 102 89 79 81 83 81 86 92 79 53 39 42 48 52 55 60 65 66 63 64 69 72 71 61 48 42
2 3 4 4 4 5 6 7 7 8 9 10 14 19 22 24 30 38 46 56 71 93 104 102 103 105 101 100 102 101 99 100 100 102 103 99 90 80 73 71 72 80 89 96 99 99 100 100 100 102 95 78 79 94 97 95 99 102 104 103 94 87 89 90 90 95 99 92 70 48 45 54 62 66 68 68 66 68 73 74 67 59 52 45 42
3 3 3 3 4 5 5 6 6 6 8 8 11 14 16 19 24 29 37 47 59 81 99 103 103 103 101 100 103 101 99 99 101 102 101 99 97 91 80 72 68 71 79 93 101 98 98 102 100 100 102 93 82 85 90 94 99 101 103 104 99 96 96 93 96 104 106 102 88 63 49 53 64 72 73 70 69 74 75 66 60 57 52 43 40
2 3 3 3 3 4 4 5 5 5 6 7 9 12 13 15 20 23 30 39 48 66 91 104 103 103 104 103 101 100 99 100 101 103 102 101 101 102 97 83 72 68 71 83 97 99 97 101 102 100 101 99 94 89 81 80 90 96 100 103 103 101 96 91 95 106 109 107 101 82 59 49 57 68 70 68 73 78 68 58 61 61 50 43 45
2 2 3 3 3 4 4 4 4 5 6 7 8 11 13 14 18 21 25 31 37 52 80 101 105 103 103 103 101 100 100 101 102 102 102 99 96 99 102 92 75 67 65 71 87 97 98 99 101 101 98 94 94 95 86 75 74 79 90 100 102 101 99 96 96 102 108 108 105 96 74 53 50 61 67 69 74 75 62 55 63 60 44 51 74
3 2 3 3 3 3 3 4 4 4 6 7 8 10 12 14 17 21 23 26 29 41 70 97 104 102 103 103 102 101 101 101 103 103 100 97 92 91 95 93 79 65 59 62 75 90 98 98 99 102 102 97 91 91 91 86 76 69 73 82 89 95 101 103 100 99 102 104 105 102 87 65 51 52 64 70 69 67 60 55 66 70 50 54 88
3 2 3 3 3 3 3 4 4 4 5 6 7 10 11 13 17 18 18 22 24 32 58 90 103 102 103 103 101 101 101 100 102 103 101 99 95 91 92 91 81 66 56 55 65 83 96 99 99 101 101 100 96 89 88 92 88 78 71 67 68 78 90 99 102 101 100 99 100 102 99 89 69 52 57 67 62 58 58 55 68 80 59 48 80
3 3 3 3 3 3 3 3 4 5 5 6 6 8 10 13 16 16 16 19 22 24 44 76 97 102 102 101 101 103 102 100 102 103 102 100 99 99 98 95 84 68 55 51 57 74 90 97 101 102 99 98 97 92 88 90 91 90 84 72 60 57 67 80 87 92 97 99 100 100 102 105 89 57 49 61 58 53 58 57 63 71 55 46 77
3 3 3 3 3 3 3 4 5 5 5 7 6 7 10 12 14 16 15 16 19 20 31 57 84 99 102 100 101 103 102 99 100 102 101 100 99 100 101 99 90 74 59 50 50 62 80 92 98 101 101 98 95 91 88 88 89 91 93 88 73 55 50 57 65 71 80 92 103 104 99 102 95 63 44 54 56 50 55 59 61 66 59 53 75
3 2 3 3 3 4 3 4 5 5 5 7 6 7 11 12 14 15 16 16 17 19 24 41 67 92 103 101 99 102 102 100 101 102 101 100 100 101 101 101 95 81 65 54 49 52 64 79 90 96 100 101 98 93 88 86 88 91 93 95 92 74 52 44 49 56 61 72 93 103 98 100 99 70 43 48 54 50 54 61 65 71 68 60 71
3 3 3 3 3 4 4 4 5 5 5 6 7 8 10 12 14 15 16 17 17 19 22 32 50 76 97 101 99 100 101 101 102 103 102 101 100 101 101 99 94 83 70 60 54 50 52 63 76 85 93 100 101 98 92 86 84 89 94 96 99 94 74 50 41 46 51 55 71 88 93 99 103 80 48 43 50 51 55 64 70 73 70 65 75
3 3 3 4 4 4 4 4 4 5 6 6 6 8 10 12 14 16 17 19 19 20 24 30 40 59 82 98 102 102 102 103 103 103 102 102 101 101 101 99 93 82 69 60 58 55 50 51 60 70 81 92 99 100 98 92 84 83 90 96 99 101 96 74 49 39 44 46 52 67 79 89 97 88 61 44 45 52 59 66 70 71 71 74 83
3 3 3 4 4 4 4 4 4 5 5 6 6 7 8 11 14 17 19 20 21 22 24 30 38 49 66 85 98 102 101 101 101 101 101 101 101 100 100 100 98 89 73 58 54 56 53 48 49 55 64 76 88 95 99 100 93 83 82 90 99 102 104 96 70 44 38 41 44 51 61 71 83 88 73 49 41 49 59 65 67 70 75 82 88
3 3 3 4 4 4 4 4 4 5 5 6 6 6 7 9 13 17 20 22 23 24 25 28 36 44 54 66 80 89 93 94 94 95 96 97 98 99 99 100 102 100 87 67 53 51 50 47 45 45 50 60 73 84 92 97 100 94 83 81 91 99 104 104 88 61 44 40 40 43 49 54 64 78 78 59 44 46 55 61 66 71 75 80 85
3 3 4 4 4 4 4 4 4 5 5 6 6 7 7 7 9 13 17 21 22 24 25 26 30 37 44 50 57 67 77 84 87 88 88 89 90 94 98 99 100 102 100 86 68 56 51 47 44 41 42 48 59 71 80 85 94 100 95 83 80 89 100 104 94 74 59 49 41 39 43 45 49 62 73 66 50 45 51 59 65 70 70 69 72
Wind_Speed
26 25 23 22 24 24 22 22 24 24 24 24 23 20 15 12 10 10 10 10 10 9 7 9 13 18 22 25 25 24 25 25 26 28 29 29 28 28 27 23 21 21 19 16 15 15 16 16 16 15 13 13 15 15 14 14 14 15 16 16 14 11 8 6 4 2 1 2 3 3 2 3 4 5 6 5 5 6 7 8 10 11 10 9 9
26 26 25 23 23 25 24 22 23 24 24 24 24 22 18 14 11 9 9 9 9 9 7 7 11 16 21 24 24 24 25 26 26 27 28 28 28 28 27 24 23 23 21 17 15 16 16 16 16 14 13 15 16 16 16 16 17 17 17 15 12 9 7 5 4 2 1 2 3 2 1 1 3 4 3 4 4 4 4 6 8 8 8 9 9
26 26 26 25 25 26 25 22 22 23 25 24 24 23 20 16 12 10 8 8 8 8 8 8 10 14 20 24 24 24 25 26 25 25 27 26 25 27 26 25 24 22 22 22 19 19 17 15 15 13 12 15 17 17 17 18 18 18 16 14 11 8 8 8 6 4 2 1 2 1 0 0 1 2 2 3 4 4 3 4 6 6 7 8 10
26 26 26 25 25 27 26 23 21 21 24 25 23 22 21 18 15 12 9 8 8 9 11 11 12 15 19 23 24 25 25 26 26 25 27 25 24 26 26 24 25 23 23 25 24 22 18 15 16 14 13 17 19 19 19 19 18 16 14 12 10 9 9 9 8 6 5 3 2 1 1 2 2 3 4 4 5 5 4 3 4 5 6 8 9
26 25 26 26 26 28 27 24 20 20 23 25 23 21 21 20 17 15 12 10 9 11 14 15 16 17 19 22 24 26 27 27 26 26 27 26 24 27 27 26 26 25 25 25 25 24 20 19 18 16 16 21 21 21 21 19 17 15 13 11 10 9 10 11 10 8 7 5 4 3 0 2 4 5 6 6 6 6 6 5 4 5 7 9 10
28 25 25 26 26 27 28 25 21 21 23 25 24 22 21 20 19 17 15 12 10 12 17 18 19 20 21 22 24 26 27 28 27 27 28 27 26 28 29 29 29 28 27 26 25 25 24 23 22 20 20 24 23 22 22 20 18 17 15 13 12 12 12 11 9 9 10 8 7 5 3 3 4 6 6 7 7 6 6 6 6 5 6 8 10
29 27 25 25 25 26 27 25 22 21 24 26 25 24 23 21 20 19 17 14 13 13 17 20 21 21 22 23 25 27 28 29 29 29 29 29 29 29 31 32 33 31 29 27 27 28 27 25 25 23 22 25 25 23 23 22 21 20 18 17 16 15 15 13 10 12 12 11 10 10 8 8 8 7 6 5 7 8 9 8 8 7 7 8 9
28 29 27 25 25 26 26 26 22 21 25 28 29 27 25 23 22 21 19 17 15 15 17 21 22 23 24 25 25 27 29 29 31 31 31 31 31 31 32 33 33 33 30 29 30 30 29 27 27 25 25 27 27 26 25 23 24 23 21 20 20 18 18 17 15 14 13 13 13 12 12 12 11 10 7 5 5 6 9 11 10 9 9 8 8
28 30 29 27 25 26 27 27 26 24 26 29 30 30 28 26 24 22 21 19 17 16 18 21 24 24 26 27 28 29 30 31 32 33 33 33 33 33 34 34 34 33 31 30 32 32 32 31 30 29 28 29 28 27 26 24 26 26 24 23 23 21 20 20 18 15 14 14 14 13 13 14 13 11 9 8 7 6 7 11 12 11 11 11 10
31 30 30 29 27 27 28 30 29 28 28 29 31 32 31 28 26 24 23 21 19 18 18 21 25 26 28 30 31 32 33 34 34 36 36 35 35 35 36 37 36 35 33 32 32 33 34 34 33 32 31 30 29 28 27 26 28 28 27 26 25 23 22 22 20 16 16 16 15 14 14 13 14 13 11 11 11 9 9 12 13 12 12 13 12
36 33 32 30 30 29 29 30 30 29 30 30 31 32 32 31 28 26 25 24 22 21 20 22 25 28 29 31 34 35 36 37 37 37 38 38 38 38 38 38 36 34 33 33 34 34 34 34 34 33 32 32 30 29 28 29 30 29 27 27 26 24 25 24 20 18 18 19 17 15 15 14 14 14 14 14 14 14 13 14 15 13 12 13 13
40 38 35 32 31 31 31 30 30 30 30 31 32 33 34 33 31 29 28 26 25 24 23 22 24 29 32 33 35 37 38 39 38 39 39 40 40 40 39 36 34 34 33 33 35 36 35 34 34 33 33 32 32 31 30 29 30 29 28 28 28 27 27 25 22 21 22 20 19 19 18 16 14 14 15 17 18 17 17 16 16 15 13 13 15
42 41 39 35 32 31 31 31 30 30 30 31 32 33 35 35 34 33 31 29 29 27 24 23 24 28 33 35 36 37 38 39 39 39 40 41 41 41 40 37 34 35 35 34 36 39 37 36 35 34 33 32 31 31 30 30 30 30 30 31 31 29 28 27 25 24 23 21 21 22 21 18 15 14 17 20 21 20 19 18 18 18 16 15 16
42 42 41 39 35 32 31 32 31 30 30 32 33 34 35 35 36 37 34 32 31 29 27 26 26 27 32 37 37 36 37 39 40 40 41 42 43 42 41 40 37 37 37 37 38 39 39 39 37 35 34 32 31 30 31 32 31 30 32 33 32 30 30 29 28 26 24 22 22 22 22 19 16 17 21 24 24 23 21 20 20 20 17 16 17
44 42 42 41 38 35 33 32 32 31 30 32 34 34 35 35 37 39 37 35 34 31 29 29 29 29 31 35 37 37 36 38 40 42 42 43 44 44 43 42 41 40 40 40 40 40 40 41 40 37 36 35 32 31 32 33 33 33 33 34 33 32 31 30 29 28 24 22 23 22 20 19 18 21 26 28 28 27 24 23 22 20 18 16 17
48 45 43 42 41 39 36 33 33 32 31 31 33 34 36 37 38 39 39 37 35 34 33 32 32 32 31 32 35 37 37 39 41 42 43 43 43 44 44 43 43 42 42 41 41 41 41 42 42 39 38 37 36 33 34 36 36 35 36 35 33 32 31 30 29 28 26 24 24 22 20 20 20 22 28 31 31 30 27 25 23 21 21 21 21
50 48 45 43 43 42 40 37 35 34 33 32 32 32 35 38 39 40 40 38 37 37 36 34 34 34 33 32 32 34 37 41 42 42 44 44 44 44 44 44 43 43 43 43 42 42 42 42 43 41 40 40 39 38 39 39 39 39 38 37 35 33 33 33 32 31 30 28 26 25 24 23 21 24 30 32 32 31 29 27 26 24 25 25 25
50 50 49 46 44 44 42 41 38 37 36 34 32 31 33 37 41 42 41 39 39 39 38 36 35 34 35 33 31 32 37 41 42 42 43 44 45 45 45 44 44 44 43 44 44 43 42 42 42 41 40 41 42 42 42 42 41 41 40 39 38 37 36 36 35 35 35 32 29 29 29 27 24 28 33 34 33 32 30 29 29 28 28 27 26
51 51 51 49 47 45 44 43 41 39 38 37 35 33 32 36 41 44 44 43 43 42 40 37 35 36 37 34 33 35 38 40 42 42 42 43 44 46 46 46 45 45 44 44 45 45 43 43 43 42 41 42 43 42 42 42 43 42 41 40 39 39 39 38 37 37 37 36 34 33 33 33 31 34 38 37 35 34 33 32 32 30 29 28 28
53 52 51 50 49 47 45 44 42 41 40 37 36 35 34 35 40 44 46 47 46 45 43 38 37 40 40 37 37 39 40 41 41 41 41 42 43 44 46 47 47 46 46 44 45 46 45 44 45 44 44 43 43 42 40 41 43 44 43 41 40 40 40 39 38 38 38 38 37 36 38 39 37 38 40 39 38 37 37 36 35 33 31 29 28
52 53 52 50 50 49 47 44 42 41 38 34 33 34 34 36 38 43 47 49 49 47 46 43 41 43 43 41 42 43 43 43 41 39 39 39 41 42 43 45 47 47 47 46 45 45 45 45 45 46 47 47 45 43 42 42 44 45 44 42 41 41 42 41 40 40 39 38 39 39 41 42 41 41 42 41 40 40 40 39 37 35 33 31 29
52 52 52 51 50 49 47 44 41 38 33 31 33 36 36 36 35 37 44 48 49 47 47 47 46 46 46 45 46 46 47 46 43 39 38 37 38 40 41 43 45 45 46 46 46 46 45 45 45 47 49 49 48 46 45 45 45 45 44 43 42 43 44 43 42 42 41 41 41 42 42 44 43 43 43 42 41 42 42 40 39 37 35 33 31
54 54 53 52 50 50 48 46 43 38 33 36 42 44 45 44 38 37 42 45 47 46 46 50 50 49 48 48 49 51 51 50 46 41 39 38 37 38 39 40 41 43 44 45 46 47 46 45 46 48 49 50 51 51 49 48 47 47 47 45 45 45 46 46 45 45 45 44 45 45 45 45 45 45 44 43 43 44 43 41 41 40 39 36 34
56 56 56 56 54 53 52 49 47 42 38 42 46 42 43 46 42 40 43 46 47 47 47 51 51 49 49 50 52 55 56 55 51 46 42 41 40 39 38 38 38 39 39 40 43 45 46 47 47 48 49 50 51 52 52 52 51 51 50 49 48 48 48 49 49 50 49 49 49 48 48 49 48 48 47 45 45 45 44 43 43 42 41 39 37
59 58 59 59 58 57 56 54 53 49 45 47 50 45 45 50 48 44 44 45 48 50 50 51 53 52 53 56 56 58 61 59 56 53 48 45 43 42 41 40 37 36 35 35 36 38 41 44 46 48 49 49 50 50 51 52 52 52 52 52 52 51 51 51 51 51 51 51 50 51 51 51 51 51 49 48 47 46 46 45 44 43 43 42 39
62 61 61 62 62 61 60 58 57 56 53 53 57 55 51 54 55 52 49 46 48 54 55 55 58 61 61 62 60 61 64 64 62 59 55 50 47 45 44 44 42 39 38 36 34 34 34 36 39 43 46 48 49 50 50 50 50 50 51 51 52 53 52 52 52 52 52 52 51 51 51 52 51 51 51 49 48 47 47 47 46 45 45 43 39
65 65 64 64 63 62 62 61 60 60 58 58 62 65 62 60 58 53 50 49 51 57 63 65 65 68 70 69 64 62 66 68 67 64 60 55 52 49 47 48 47 44 43 41 40 37 35 34 34 36 39 42 45 47 48 48 49 49 50 51 52 52 53 53 53 53 54 53 53 51 51 50 50 50 49 48 47 46 46 46 46 45 44 43 39
68 68 68 66 64 63 62 63 63 63 62 62 64 67 69 70 67 59 53 54 56 59 65 70 70 70 72 73 70 65 67 71 71 69 65 61 57 54 51 50 50 48 46 44 43 43 41 38 36 34 33 35 37 40 42 44 45 46 47 48 49 50 52 53 53 54 55 55 55 54 53 52 51 49 48 47 45 44 44 44 44 43 42 41 39
72 71 70 69 68 67 63 63 66 67 66 66 66 67 69 71 74 72 66 63 63 64 66 70 72 72 72 73 73 71 70 72 75 73 70 67 63 59 56 53 52 51 48 45 45 46 45 43 40 36 33 33 34 34 35 36 37 38 39 39 40 41 43 46 48 51 53 54 55 56 56 54 52 50 48 47 46 45 44 44 44 43 42 40 39
77 74 73 72 72 72 69 67 68 70 71 71 69 69 70 69 71 76 77 74 73 72 71 71 71 73 74 72 73 74 73 74 77 77 74 71 68 65 61 57 55 53 51 47 46 47 49 47 44 40 37 36 35 34 33 33 33 32 31 31 30 31 33 35 38 41 45 48 51 53 54 54 53 51 49 48 47 46 46 45 44 42 40 38 37
80 78 76 75 74 74 74 73 72 72 72 73 72 71 72 71 70 74 79 81 79 77 77 76 73 73 75 74 72 74 75 75 78 79 78 75 72 70 66 61 58 56 54 52 49 49 51 51 48 45 43 41 39 37 35 34 33 32 30 28 27 26 27 28 30 33 37 41 44 47 49 51 52 51 49 47 46 45 46 46 45 43 41 39 38
81 80 80 78 77 76 76 76 76 76 75 74 75 75 75 75 74 74 77 80 81 80 81 80 78 75 76 75 73 74 77 78 79 81 81 79 77 74 70 65 61 59 58 56 53 50 51 53 52 49 48 46 44 42 40 37 36 34 32 30 28 26 24 24 25 28 32 36 39 42 44 47 48 48 47 45 44 44 45 45 45 44 43 43 42
79 80 81 81 80 79 78 78 78 78 78 76 77 78 79 79 78 77 77 77 79 82 82 82 81 79 75 72 70 72 75 77 79 82 82 82 80 78 75 70 65 62 61 60 58 54 52 54 54 52 50 50 49 48 46 43 41 39 36 34 32 29 27 24 23 24 27 32 36 39 41 42 43 43 42 42 41 42 42 43 43 43 42 42 42
75 76 78 80 80 80 79 79 79 79 79 78 78 80 81 81 80 80 80 78 78 81 82 81 81 80 76 71 69 68 70 72 75 80 83 84 82 81 79 75 70 67 64 62 62 59 54 54 56 55 52 50 51 51 50 49 47 45 43 41 38 35 31 28 24 23 24 28 33 36 38 40 39 38 38 38 38 39 39 39 40 40 39 39 39
71 72 74 76 78 79 78 79 80 80 79 77 78 81 82 82 81 81 81 81 80 82 82 81 79 78 76 73 70 68 68 68 71 76 81 84 85 83 82 80 76 72 68 65 64 64 60 56 57 59 56 52 51 51 51 50 50 48 47 46 43 40 36 32 29 25 23 25 29 33 35 37 37 35 35 36 36 36 36 36 36 37 35 34 34
66 67 70 71 73 76 76 77 78 78 77 77 77 80 82 82 82 82 82 83 83 84 85 84 81 79 76 75 74 71 68 67 69 72 76 81 85 86 85 84 82 77 73 69 66 65 64 61 59 60 60 56 52 52 52 51 49 49 48 46 45 43 40 37 33 29 25 24 26 30 33 34 34 34 34 34 34 34 34 34 34 33 32 31 31
60 62 65 66 68 71 73 74 75 74 73 74 75 78 81 82 82 82 83 84 85 86 87 87 85 83 81 79 77 73 68 66 67 70 75 80 85 88 88 87 85 82 78 74 71 68 66 65 62 61 61 58 53 53 55 54 50 49 48 47 45 44 42 40 36 33 29 25 24 27 30 31 32 32 33 34 33 32 32 32 32 31 29 29 28
55 57 59 62 63 66 69 71 72 70 69 70 72 76 79 80 80 82 84 86 87 88 89 89 88 88 86 84 82 78 71 67 68 72 76 79 82 86 89 89 88 86 82 79 76 73 69 67 65 62 62 61 58 56 57 57 54 51 49 48 46 44 43 41 38 36 33 29 26 26 28 31 31 31 32 33 32 31 31 31 30 28 27 25 25
50 52 55 57 59 62 66 69 69 68 67 67 69 72 76 77 79 82 84 86 88 90 91 91 91 90 89 88 87 84 78 74 73 75 77 79 80 83 87 90 91 90 87 83 80 77 75 71 69 66 63 63 63 61 60 59 57 54 51 48 46 44 42 41 40 38 36 33 29 28 28 31 32 32 32 32 31 31 31 30 28 25 23 22 21
46 48 51 53 56 59 63 65 66 64 63 63 64 68 72 75 78 80 83 86 89 91 93 93 93 93 92 91 90 88 84 82 81 80 80 81 82 83 86 90 92 92 91 88 83 80 78 76 73 71 68 66 64 64 63 61 59 57 53 48 45 44 42 40 39 39 38 37 33 30 29 31 33 33 32 32 31 31 31 29 26 22 20 18 17
42 45 47 50 52 55 59 61 61 60 61 62 62 64 68 72 75 79 82 86 89 92 95 95 94 95 95 94 92 91 89 89 88 87 87 87 86 86 86 89 93 95 95 92 87 82 80 79 77 75 74 71 68 66 65 64 62 60 56 51 47 43 40 38 37 36 37 38 37 33 31 31 33 34 33 33 33 33 31 30 26 23 21 20 17
39 42 44 46 48 51 54 56 56 57 60 61 61 64 67 70 75 79 83 86 89 92 96 99 98 98 98 97 95 93 93 93 94 93 92 90 89 88 88 89 93 96 97 95 90 85 82 81 79 78 77 75 73 70 68 66 65 63 60 57 53 45 39 38 38 36 35 36 37 36 33 31 33 35 35 36 36 35 33 32 29 25 25 25 22
37 39 41 43 44 47 50 51 52 54 58 60 62 65 66 69 75 81 83 84 88 92 98 102 101 100 100 99 98 96 95 95 96 96 94 91 90 89 89 90 93 96 97 96 93 89 85 83 82 81 80 78 76 74 72 69 67 66 63 61 59 53 47 45 43 41 38 33 33 35 33 31 33 36 38 39 39 37 36 35 31 29 29 29 27
35 36 38 40 41 43 46 47 49 52 55 58 62 64 65 69 75 80 81 83 87 91 98 104 104 103 102 102 100 99 98 97 96 97 96 94 92 90 90 91 93 94 95 97 96 92 89 87 85 83 82 81 80 78 76 74 70 68 66 64 63 61 57 54 51 49 45 39 35 35 34 34 37 38 39 41 42 40 39 38 35 33 33 33 32
33 33 35 37 38 41 43 45 48 51 54 57 60 61 64 70 75 78 80 81 85 89 95 103 106 105 104 104 102 100 101 100 97 97 97 96 95 94 93 93 94 94 94 95 97 96 93 90 88 86 84 83 82 81 79 78 75 72 69 66 66 65 63 60 57 55 53 49 45 42 39 38 38 38 39 43 44 43 42 41 39 37 37 37 38
31 31 32 34 36 39 42 44 48 52 55 57 59 60 64 70 73 76 78 79 81 86 92 99 105 107 106 105 103 101 102 102 99 97 96 96 96 97 97 97 97 96 94 94 96 98 97 93 92 90 87 85 85 84 82 81 79 76 73 69 68 68 67 65 61 59 58 55 53 49 45 41 39 38 39 44 47 47 45 44 42 40 41 42 42
30 30 30 32 35 39 42 45 48 52 55 57 59 61 65 69 71 73 75 76 78 82 87 94 102 107 107 106 104 103 103 104 103 101 99 97 96 96 98 99 100 99 98 95 94 97 98 96 94 93 91 89 88 87 85 83 82 80 77 74 71 70 70 69 66 63 61 59 57 54 51 48 45 41 41 45 49 49 48 47 46 45 45 46 45
28 28 29 30 35 39 42 45 48 51 54 57 59 62 65 67 69 71 73 74 76 79 84 90 97 104 108 108 107 106 106 106 107 106 105 102 99 97 96 97 99 101 101 98 95 95 97 97 96 95 94 93 92 90 88 86 84 83 81 78 75 72 72 72 70 67 64 62 60 58 55 53 50 46 44 46 50 51 51 50 50 49 49 49 47
27 27 27 30 34 39 41 44 47 50 52 55 58 61 64 66 68 69 71 73 75 78 82 88 94 101 107 110 110 110 110 110 111 111 111 109 107 103 99 96 96 98 100 100 98 96 96 97 97 96 95 96 95 94 92 89 88 86 84 82 79 76 75 75 74 72 68 65 64 62 59 57 54 51 48 48 52 54 53 53 53 52 51 51 49
26 26 27 30 35 38 40 42 45 48 51 54 56 60 63 66 68 70 71 72 75 77 81 86 91 97 104 109 112 114 114 113 114 114 114 113 112 110 107 102 98 97 99 100 99 97 97 97 97 95 95 96 97 96 95 94 92 89 87 86 83 81 78 77 77 76 73 70 67 65 64 61 58 55 52 52 54 56 56 56 56 55 53 52 51
25 26 27 30 35 37 38 40 43 46 49 51 54 56 60 63 67 70 72 74 76 78 81 86 90 95 101 106 110 112 114 115 115 115 115 115 114 113 112 109 105 103 102 102 100 98 97 97 97 96 95 96 98 99 98 97 95 93 91 89 88 85 83 81 80 79 77 75 72 69 67 66 63 60 57 55 57 59 59 59 59 57 55 53 52
Wind_Direction
299 294 290 288 289 292 295 300 307 311 312 313 314 311 304 302 310 311 310 313 311 289 252 221 209 203 198 195 193 193 194 197 200 202 199 201 207 205 201 197 199 203 196 193 204 208 211 209 209 211 204 215 227 221 212 207 204 198 190 186 185 182 176 173 172 165 182 306 309 295 265 254 253 251 262 280 297 303 291 281 275 269 256 233 223
301 297 292 288 286 287 290 294 298 303 304 305 309 312 307 298 298 301 297 297 301 282 248 220 208 202 199 198 197 196 198 199 199 201 200 201 207 203 196 195 200 200 191 192 205 204 204 212 212 200 191 209 223 219 211 205 201 198 194 193 194 196 203 216 216 205 242 317 315 302 240 227 244 248 271 300 322 321 293 280 279 273 256 236 230
301 299 294 288 285 285 286 288 290 293 295 297 301 307 307 299 288 288 283 277 283 263 227 213 211 204 201 201 200 200 201 199 199 202 201 202 205 198 193 199 204 202 196 196 202 199 195 205 210 192 186 209 220 218 212 205 200 200 200 202 210 225 238 241 233 220 231 288 301 295 133 205 273 291 326 336 346 343 316 291 289 277 256 242 241
299 300 298 292 286 284 285 285 283 283 287 290 293 298 303 299 286 278 271 258 260 238 210 208 215 210 206 204 204 204 204 201 199 202 202 201 200 194 194 205 209 205 203 202 199 192 189 202 205 187 193 215 217 213 210 205 204 206 205 211 223 235 247 249 244 240 235 243 268 266 84 43 14 4 6 6 3 357 343 317 298 282 260 250 250
296 298 299 296 288 283 284 283 278 276 281 285 287 290 293 296 286 274 265 251 240 224 209 207 212 214 213 210 208 208 207 203 202 202 202 199 196 193 195 204 212 208 204 205 200 189 192 206 200 183 201 219 215 209 207 204 207 213 214 225 230 227 242 248 244 250 250 243 254 260 311 22 7 1 8 8 0 358 356 338 312 287 265 258 255
292 293 294 294 290 284 283 280 276 275 279 281 283 284 284 288 284 274 263 249 234 221 213 208 208 211 215 216 215 214 211 207 204 202 201 199 193 194 197 202 212 212 204 203 201 194 200 210 202 191 205 219 216 210 208 204 208 218 224 233 235 226 233 239 235 253 262 257 257 261 266 292 320 337 355 357 338 331 347 348 326 300 280 269 262
287 287 286 287 287 283 281 279 274 274 278 279 279 280 277 277 278 273 265 252 236 223 216 213 209 208 212 218 220 219 215 211 207 203 200 198 194 195 201 205 214 218 210 204 202 201 205 210 204 199 208 219 218 214 213 210 212 221 227 233 237 229 229 232 234 249 258 259 261 262 266 271 286 305 324 347 331 309 316 328 320 306 293 282 275
286 284 281 279 279 277 277 275 272 270 273 276 276 274 270 268 269 268 264 255 241 227 219 217 214 209 208 214 220 221 218 213 210 205 200 197 196 197 202 208 214 220 217 211 208 206 207 209 205 204 209 215 216 216 217 217 220 225 228 235 238 232 229 233 235 238 246 255 258 260 266 273 279 287 290 308 321 302 297 301 302 299 292 288 284
290 286 282 277 272 270 271 269 266 262 262 266 269 269 264 261 261 262 260 255 244 231 222 219 217 214 210 211 216 219 219 215 211 207 201 196 197 199 202 206 211 217 220 218 214 212 211 211 210 210 210 210 213 216 217 221 225 226 228 233 235 230 228 234 235 227 229 245 254 260 267 270 272 277 281 288 295 299 292 289 292 293 288 287 287
295 288 284 280 273 268 266 266 264 260 257 258 261 264 261 257 256 257 256 253 246 234 224 221 219 217 213 211 213 216 217 216 212 209 203 197 197 200 203 205 207 212 218 222 220 217 215 215 215 216 214 211 210 211 215 220 225 226 228 230 230 227 226 229 228 219 222 236 247 257 263 265 269 272 277 283 286 289 284 277 279 283 285 286 288
299 292 286 282 276 270 266 265 265 263 259 258 258 259 258 255 252 252 252 250 247 238 227 221 219 219 217 215 214 215 216 216 213 211 206 201 198 200 204 206 207 208 211 219 224 221 219 218 218 219 218 215 211 208 213 218 221 224 227 230 228 226 224 222 219 219 230 238 244 253 257 259 263 265 271 281 284 284 280 274 275 276 280 281 281
299 295 290 285 278 273 268 264 262 263 262 260 258 256 254 251 248 248 248 247 246 241 232 224 221 221 221 218 217 217 217 217 215 212 210 207 204 203 206 207 210 212 210 215 222 224 223 221 220 220 220 219 215 212 215 217 219 221 225 230 229 226 226 224 220 224 232 237 243 250 251 251 254 253 263 277 282 284 283 280 278 276 276 274 274
298 295 292 288 281 275 271 266 261 259 260 261 260 257 253 248 244 244 244 243 244 242 235 229 225 224 223 221 219 218 219 219 218 215 213 212 210 209 209 207 210 215 214 214 218 221 223 223 222 221 220 220 219 217 218 219 220 221 226 229 229 228 228 225 223 227 233 237 244 249 250 252 253 247 257 273 278 280 281 279 276 276 278 275 273
297 294 291 288 284 278 272 269 264 258 255 257 259 259 256 249 243 242 242 241 241 240 238 233 230 228 226 223 221 220 220 220 220 219 216 214 213 212 211 209 210 213 214 216 217 218 220 222 223 222 220 221 221 220 222 222 221 221 227 231 229 230 230 227 228 233 235 237 243 249 252 251 246 242 254 268 272 272 275 274 274 277 278 274 272
295 292 289 287 283 279 273 269 266 262 256 252 254 257 258 253 244 241 241 241 240 239 238 236 232 231 229 225 221 221 222 221 221 221 219 217 215 215 214 213 213 213 214 217 219 218 220 221 223 223 221 220 221 224 228 227 223 221 227 232 232 231 231 232 235 235 234 236 242 247 248 241 233 241 256 263 265 267 270 271 274 275 271 267 268
293 290 286 284 282 279 275 269 265 262 257 252 249 250 255 255 248 241 238 239 239 238 238 237 235 233 232 228 223 222 224 224 222 220 220 220 218 217 216 216 215 213 213 216 219 220 220 221 223 224 223 220 219 221 227 228 225 224 226 230 232 232 232 233 233 233 236 238 238 239 239 235 232 243 257 260 261 264 266 268 270 268 266 267 268
291 289 285 282 280 278 275 271 266 262 258 253 247 244 247 252 250 243 237 236 236 236 237 238 237 235 234 231 227 225 227 227 224 221 221 221 220 219 218 218 217 215 213 214 217 219 219 220 223 224 224 223 221 221 224 226 227 227 228 229 230 231 232 234 233 234 238 238 233 230 233 235 238 247 255 257 258 261 265 267 267 266 266 268 269
289 287 285 282 279 277 275 272 268 264 260 256 250 243 240 244 247 243 236 233 233 234 235 237 238 238 236 232 228 228 228 228 226 224 222 221 221 221 220 220 220 218 215 213 215 217 218 219 221 223 224 225 225 225 227 229 230 231 231 231 231 232 233 235 235 235 237 236 230 227 229 233 240 249 252 254 257 261 264 266 267 268 268 268 270
289 285 283 281 277 275 273 271 269 266 262 260 256 248 239 237 240 241 236 230 230 230 231 234 237 241 240 231 225 227 228 227 226 225 224 223 221 221 221 222 222 221 219 216 215 215 216 218 218 220 223 225 226 227 230 232 232 232 233 233 233 234 235 235 236 237 237 236 230 227 228 230 235 243 248 253 258 261 264 266 268 269 269 268 269
287 284 281 279 276 274 271 270 270 268 267 267 265 258 248 240 237 237 236 232 230 229 227 227 232 239 239 231 224 223 224 224 223 222 223 223 223 222 222 222 222 222 222 220 219 217 216 217 218 220 224 226 227 227 228 231 233 233 234 234 233 234 235 235 236 237 238 237 234 230 230 232 236 242 248 254 258 261 263 266 268 269 268 267 267
282 281 278 276 274 272 270 268 268 269 273 277 273 265 257 249 242 238 237 235 232 230 227 225 229 236 236 231 225 221 221 220 218 217 219 221 223 223 223 224 223 223 223 222 222 221 219 218 219 221 223 225 228 228 227 228 231 234 234 235 234 235 236 235 235 236 237 238 238 236 235 238 242 247 251 256 258 261 264 265 267 268 267 267 267
276 274 273 271 269 268 266 264 263 265 270 273 273 273 270 266 258 246 241 239 234 232 233 230 230 234 235 232 226 220 219 218 215 213 216 219 221 222 224 225 225 225 225 224 224 223 222 221 221 221 221 223 225 227 228 229 230 232 234 234 235 235 236 236 236 237 238 239 240 240 241 243 246 250 253 256 259 262 263 264 266 267 266 267 267
272 269 266 264 263 261 260 257 255 252 250 251 259 268 271 273 269 252 242 240 236 233 237 238 236 238 239 236 229 222 218 217 215 214 218 220 221 222 224 225 226 226 226 226 226 225 224 223 224 224 223 224 225 227 229 230 231 232 234 235 235 236 237 237 237 238 239 240 241 242 244 245 248 251 254 256 259 261 262 264 266 266 267 268 267
269 266 263 259 256 255 253 252 249 242 235 236 241 248 255 258 259 252 242 238 235 231 233 237 238 243 248 245 235 225 220 218 216 217 220 222 222 223 224 224 224 224 226 227 229 229 228 227 227 227 227 227 227 228 228 229 231 232 233 234 235 236 237 237 238 238 239 240 241 242 244 246 248 251 253 255 256 258 261 262 262 262 265 267 268
266 262 260 258 255 252 249 247 246 240 233 230 229 230 237 238 238 241 241 238 234 228 227 231 233 239 248 250 241 230 222 220 219 220 222 221 222 224 225 224 221 220 222 224 227 230 231 231 231 231 231 231 230 230 230 231 232 233 233 234 235 235 237 237 238 238 238 239 240 241 242 243 245 248 250 252 253 254 256 256 256 258 261 265 267
263 259 257 255 253 251 248 246 245 241 235 230 226 224 228 230 230 235 238 237 232 224 220 223 230 235 240 244 241 232 224 221 220 222 224 222 221 223 224 225 223 220 220 222 223 226 228 230 233 234 234 234 234 233 233 233 233 235 236 236 237 239 240 241 241 240 239 239 239 239 239 240 242 244 246 248 249 251 252 254 255 257 260 264 266
262 258 255 252 251 250 248 245 244 243 239 233 228 226 226 228 231 234 233 231 231 226 218 216 224 232 235 238 239 231 225 222 221 223 225 224 222 222 223 224 224 223 224 225 225 225 225 228 231 234 234 233 234 235 234 234 234 235 237 238 239 241 242 243 243 243 243 241 240 239 239 239 241 242 244 245 248 250 252 254 255 257 260 263 265
262 258 254 251 250 248 247 244 242 242 240 237 233 230 229 228 229 230 230 227 228 231 226 219 222 229 232 235 237 233 227 224 223 223 225 226 224 222 222 224 224 224 226 229 230 228 226 227 229 231 231 229 229 230 232 233 234 235 237 238 240 241 242 243 243 243 244 243 242 241 240 240 241 242 243 245 247 249 252 253 255 257 260 261 263
266 261 256 251 248 246 245 243 240 238 238 237 235 233 231 229 228 228 229 228 227 231 233 230 228 230 232 233 235 235 230 225 224 224 225 226 226 224 223 223 223 223 225 228 232 231 228 227 228 228 227 224 223 225 227 228 229 231 232 235 238 240 242 243 243 244 244 243 243 243 243 242 241 241 243 244 246 247 248 251 254 258 260 260 261
270 265 260 255 250 247 244 242 241 238 236 235 235 234 232 230 229 227 228 229 229 231 234 235 234 234 234 235 235 235 233 227 225 226 226 226 227 225 224 223 222 222 223 224 228 231 230 227 227 227 226 224 223 223 224 224 224 225 227 230 235 239 242 243 243 243 244 244 244 244 244 243 242 241 241 243 245 246 247 249 251 255 257 257 258
271 268 264 259 254 250 246 243 241 239 237 235 234 234 233 230 229 228 227 227 228 229 231 233 235 235 235 237 236 234 234 230 227 227 227 227 227 227 226 224 223 222 221 221 224 229 231 229 227 227 227 226 225 224 225 226 225 225 227 230 235 242 247 247 245 243 244 245 245 243 243 242 241 241 240 241 243 245 247 247 248 249 250 251 253
270 267 265 261 257 254 250 246 243 239 237 236 234 233 233 230 228 228 228 227 226 227 228 230 233 234 234 236 237 236 235 233 229 227 228 229 228 227 227 226 225 223 222 221 221 226 230 231 229 228 228 228 228 228 229 230 231 231 231 233 237 244 250 254 253 248 244 244 245 243 242 240 240 239 239 240 242 244 246 247 247 247 248 249 252
267 265 263 261 258 255 252 249 246 242 238 235 233 233 233 231 229 227 227 227 226 226 227 228 230 231 232 234 235 236 236 236 232 229 228 229 229 228 227 227 226 225 224 223 221 222 228 231 229 228 228 229 230 231 232 234 236 238 238 239 242 246 250 256 259 256 248 244 244 243 240 238 237 237 237 238 240 242 244 245 246 247 247 248 250
266 262 260 259 257 255 253 250 247 244 240 236 232 232 232 231 229 227 226 226 225 225 225 226 227 229 230 231 231 233 235 237 236 232 229 229 229 229 227 226 226 226 225 224 223 221 224 230 231 228 227 228 230 232 235 237 239 241 243 244 246 248 249 252 259 262 255 247 243 242 240 237 235 235 236 237 238 240 243 245 246 246 246 248 249
264 261 258 256 255 254 252 250 247 245 242 237 233 231 231 230 229 227 226 224 224 223 223 223 224 226 227 227 227 228 231 234 237 235 231 230 230 230 228 226 225 226 225 223 223 222 222 226 230 230 227 227 229 232 235 238 239 242 244 246 247 248 250 251 254 261 263 254 245 241 240 238 235 234 235 236 237 239 240 243 244 244 243 243 243
263 260 257 254 253 252 251 249 247 245 242 239 234 231 230 229 228 226 225 223 222 222 222 222 221 222 223 224 225 226 229 232 235 235 234 232 231 230 229 227 225 225 225 224 222 221 221 222 226 229 229 229 230 233 235 236 238 240 242 244 246 247 250 251 253 257 263 264 253 243 239 238 235 233 233 234 236 237 238 239 241 240 238 236 233
261 258 256 253 250 250 249 248 247 245 242 239 235 232 230 229 227 225 224 223 220 219 221 221 221 221 222 222 223 225 228 231 234 235 234 233 231 230 230 229 227 225 225 225 223 222 221 221 222 226 228 228 229 233 235 234 236 237 239 242 244 246 248 251 253 255 260 266 264 251 242 239 236 233 232 233 233 234 235 235 235 233 231 228 225
261 256 254 251 248 247 246 246 245 243 241 239 236 233 231 228 226 223 222 221 219 217 218 220 221 221 222 223 223 224 225 227 230 233 234 233 232 231 230 230 229 227 225 225 225 223 221 221 221 222 225 225 226 230 233 233 233 235 236 239 241 243 246 250 253 256 258 262 267 260 247 240 237 234 233 232 231 230 230 230 228 225 225 223 221
260 255 251 248 246 243 242 242 242 241 239 237 234 233 231 227 225 222 220 219 218 215 215 218 220 221 222 223 224 224 223 224 226 229 232 232 231 231 231 230 230 228 226 225 224 224 223 222 221 220 221 224 225 228 231 230 231 232 234 237 240 242 245 249 252 256 258 259 264 264 254 243 238 236 233 230 227 225 223 222 220 220 220 217 214
259 255 250 247 244 241 239 239 240 239 237 236 233 231 230 227 224 222 219 218 217 214 212 215 219 221 221 222 223 222 222 224 226 227 228 229 228 229 230 230 230 229 228 225 223 224 224 223 222 221 220 221 224 228 231 231 230 230 231 233 237 240 242 247 251 256 259 259 260 263 260 250 240 236 233 227 223 221 219 215 214 214 210 206 210
258 254 250 246 243 240 239 238 237 236 234 233 231 229 227 225 223 221 219 217 217 213 210 211 217 220 221 221 221 221 221 223 225 227 228 228 227 227 228 230 229 228 228 226 223 223 224 224 223 223 222 221 222 225 230 232 232 230 228 228 230 235 240 245 250 255 259 260 259 260 263 258 246 237 231 226 222 219 216 211 209 208 200 193 204
258 252 249 246 242 239 238 237 235 233 231 229 228 225 223 221 220 220 219 217 216 213 209 209 213 218 220 220 221 221 221 222 224 227 229 229 229 229 229 230 230 229 227 226 224 222 224 225 225 224 223 222 222 223 226 230 232 232 230 227 226 228 232 239 243 246 249 255 258 258 262 263 254 241 232 227 222 217 214 209 206 208 201 191 198
258 252 247 244 241 238 236 235 232 231 229 226 224 222 220 218 218 219 219 216 215 213 210 208 211 215 218 219 220 220 220 221 223 226 228 229 230 230 231 232 232 230 227 226 224 223 223 225 225 225 225 224 223 223 223 226 229 232 232 230 226 224 224 228 232 234 235 241 249 253 256 260 256 245 235 228 222 216 213 208 206 209 204 192 193
259 253 247 243 240 236 234 231 229 228 227 225 224 221 218 217 218 219 218 216 215 213 211 209 210 213 216 218 219 220 221 221 222 225 227 229 229 230 231 233 234 233 229 226 224 224 224 224 225 225 226 225 224 224 223 224 226 228 231 232 230 227 224 226 229 230 230 229 233 238 240 243 246 243 236 228 222 216 212 208 205 207 202 193 193
258 253 248 243 238 234 231 228 226 224 223 224 223 221 217 217 218 219 218 217 215 214 212 210 210 212 215 217 219 220 221 221 222 225 227 228 229 230 231 232 234 234 232 229 226 224 224 224 224 225 226 227 226 225 224 224 224 225 228 231 232 231 228 227 229 232 232 230 230 232 233 235 240 240 234 228 222 216 211 207 204 203 200 196 197
257 252 247 242 236 231 228 226 224 222 221 221 221 219 217 217 218 219 219 218 217 215 214 212 211 211 214 217 218 219 222 222 222 224 226 228 229 230 231 232 234 234 234 232 229 226 225 224 224 224 225 227 227 227 226 225 224 224 225 227 231 233 232 229 229 231 233 234 234 233 233 235 239 239 233 227 222 217 211 207 204 203 202 200 198
257 251 246 240 234 229 226 225 223 222 221 220 218 216 216 217 217 218 219 219 218 217 216 214 213 212 213 216 217 218 221 222 223 223 225 226 228 229 231 232 234 234 234 233 232 229 227 225 225 224 225 226 228 228 227 226 225 224 224 225 227 231 234 233 231 229 231 234 235 235 234 235 238 238 233 227 223 218 213 208 205 203 203 202 200
256 250 245 239 233 229 227 225 224 222 221 220 218 215 215 216 216 217 218 219 219 218 217 216 215 214 214 215 217 218 220 222 223 224 224 225 226 227 229 232 233 235 235 234 233 232 230 228 226 226 226 226 227 228 228 227 226 225 224 224 225 227 231 234 234 231 230 231 234 236 235 235 235 236 233 227 224 220 216 211 207 204 203 203 204
255 249 244 237 233 230 228 226 225 223 222 221 220 217 214 213 214 215 217 218 218 218 218 217 217 216 215 215 217 218 220 222 224 225 225 226 226 226 227 229 232 234 235 235 234 234 233 231 229 228 227 227 227 227 228 228 227 226 224 223 224 225 228 232 234 234 231 230 232 234 235 234 234 234 232 228 224 221 219 214 210 207 205 206 208
253 247 241 236 233 231 229 228 226 225 223 222 221 220 217 214 212 212 214 216 217 218 218 218 218 218 218 218 218 219 221 222 224 225 226 227 227 228 228 228 230 232 235 236 235 234 234 234 232 231 230 229 228 227 227 228 228 227 226 224 223 224 225 228 232 234 233 231 231 232 234 235 234 232 232 229 225 222 221 218 214 211 209 210 212
250 245 239 235 233 232 230 228 228 227 225 223 222 222 222 220 216 213 213 214 216 217 218 218 219 219 219 220 220 221 222 223 225 226 227 228 229 229 229 229 229 230 233 236 237 236 235 235 235 234 232 231 230 229 228 228 228 227 227 226 225 224 224 226 229 232 233 233 232 231 232 234 234 233 231 230 227 223 222 221 218 214 213 215 216